Regional Weather Roundup
Issued by NWS

Home | Current Version | Previous Version | Text Only | Print | Product List | Glossary On
Versions: 1 2 3 4 5 6 7 8 9 10 11 12 13 14 15 16 17 18 19 20 21 22 23 24 25 26 27 28 29 30 31 32 33 34 35 36 37 38 39 40 41 42 43 44 45 46 47 48 49 50
000
ASMX46 KSGX 202111
RWRMX

MEXICAN WEATHER ROUNDUP
NATIONAL WEATHER SERVICE SAN DIEGO CA
100 PM PST SAT JAN 20 2018

BAJA CALIFORNIA

CITY           SKY/WX    TMP DP  RH WIND       PRES   REMARKS
ENSENADA NW      N/A     60  32  34 W7        30.01F
LA PAZ         PTSUNNY   79  52  38 S7        29.96F
LORETO         MOSUNNY   79  59  50 NE10      29.91F
MEXICALI       MOSUNNY   63  27  25 W21       29.97F
S.J. DEL CABO  CLOUDY    79  55  44 E9        29.94F
TIJUANA        PTSUNNY   57  41  54 W15       30.06

NORTHWESTERN MEXICO

CITY           SKY/WX    TMP DP  RH WIND       PRES   REMARKS
CHIHUAHUA      SUNNY     73  25  16 S9        29.95F
CULIACAN       CLOUDY    79  54  41 S7        29.94F
GUAYMAS          N/A    N/A N/A N/A MISG        N/A
HERMOSILLO     PTSUNNY   75  48  38 SW12      29.95F
JUAREZ         MOSUNNY   66  21  18 SW12      29.92F
LOS MOCHIS       N/A     77  45  31 SW15      29.96
OBREGON        MOSUNNY   77  50  38 SW12      29.92F

NORTHEASTERN MEXICO

CITY           SKY/WX    TMP DP  RH WIND       PRES   REMARKS
MATAMOROS        N/A     75  63  64 SE14      29.98F
MONCLOVA       SUNNY     79  37  22 E6        29.92F FOG
MONTERREY      SUNNY     73  46  38 SE8       29.93
NUEVO LAREDO   SUNNY     64  54  68 CALM      29.96F
PIEDRAS NEGRAS SUNNY     59  50  72 SE6       29.98F
REYNOSA        MOSUNNY   77  57  50 S17G29    29.94F
SALTILLO       SUNNY     75  50  41 NE7       30.10F
TORREON        MOSUNNY   77  28  16 NE3       29.98
VICTORIA       SUNNY     77  52  41 MISG      29.95F

WESTERN MEXICO

CITY           SKY/WX    TMP DP  RH WIND       PRES   REMARKS
AGUASCALIENTES MOSUNNY   70  25  18 W9        30.18F
COLIMA         MOSUNNY   82  54  36 CALM      29.97F
DURANGO        PTSUNNY   72   9   8 S12       30.11F
GUADALAJARA    MOSUNNY   77  21  12 S3        30.12F
MANZANILLO     PTSUNNY   84  75  74 W12       29.86
MAZATLAN       PTSUNNY   77  55  47 W7        29.94F
PTO. VALLARTA  PTSUNNY   75  66  73 SW10      29.91F
TEPIC          MOSUNNY   81  36  19 SW5       30.04F
URUAPAN        CLOUDY    72  48  43 S12       30.13F
ZACATECAS      MOSUNNY   68  23  18 W12G23    30.18

CENTRAL MEXICO

CITY           SKY/WX    TMP DP  RH WIND       PRES   REMARKS
CUERNAVACA     PTSUNNY   82  41  23 SW7       30.06F
LEON             N/A    N/A N/A N/A MISG        N/A
MEXICO CITY    MOSUNNY   70  28  21 SW3       30.23F
MORELIA        PTSUNNY   75  32  20 N7        30.15F
POZA RICA      MOSUNNY   81  64  57 E12       30.01F
PUEBLA         MOSUNNY   70  36  28 SE14      30.23F
QUERETARO      MOSUNNY   72  30  21 NW7       30.22F
S. LUIS POTOSI   N/A    N/A N/A N/A MISG        N/A
TAMPICO        SUNNY     75  63  64 SE12      29.99F
TOLUCA         PTSUNNY   66  25  20 SE5       30.28

SOUTHERN MEXICO

CITY           SKY/WX    TMP DP  RH WIND       PRES   REMARKS
ACAPULCO       MOSUNNY   84  73  70 W9        29.84F
B. DE HUATULCO MOSUNNY  N/A N/A N/A SE12      29.89F
MINATITLAN     MOSUNNY   75  68  78 N12       29.97F
OAXACA         PTSUNNY   79  36  21 E3        30.11F
PTO. ESCONDIDO MOSUNNY   84  70  61 W9        29.94F
TAPACHULA      MOSUNNY   90  68  48 W12       29.82F
TUX. GUTIERREZ PTSUNNY   81  61  50 NW12      29.95F
VILLAHERMOSA   PTSUNNY   77  64  65 E13       30.00F

YUCATAN PENINSULA

CITY           SKY/WX    TMP DP  RH WIND       PRES   REMARKS
CAMPECHE       MOSUNNY   82  63  51 E9        29.97F
CANCUN         PTSUNNY   77  64  65 NE7       30.06F
CHETUMAL       CLOUDY    81  68  65 CALM      29.99F
C. DEL CARMEN  PTSUNNY   77  64  65 N10       29.99F
COZUMEL        PTSUNNY   77  68  73 NE10      30.03F
MERIDA         PTSUNNY   86  54  32 E22       30.02F

$$





USA.gov is the U.S. government's official web portal to all federal, state and local government web resources and services.